Tracking 32418 objects as of 9-Dec-2025
HD Live streaming from Space Station
objects crossing your sky now

IRIDIUM 33 DEB

Track IRIDIUM 33 DEB now!
10-day predictions


NORAD ID: 34696
Int'l Code: 1997-051KT
Perigee: 632.6 km
Apogee: 737.5 km
Inclination: 86.2 °
Period: 98.3 minutes
Semi major axis: 7056 km
RCS: 0.0073 m2 (small)
Launch date: September 14, 1997
Source: United States (US)
Launch site: TYURATAM MISSILE AND SPACE COMPLEX (TTMTR)

Note: This is SATELLITE DEBRIS
Your satellite tracking list
Your tracking list is empty




NASA's NSSDC Master Catalog

Two Line Element Set (TLE):
1 34696U 97051KT  25342.60254226  .00034329  00000-0  61608-2 0  9997
2 34696  86.1849  29.4472 0074318 181.4638 332.3745 14.64750758866125
Source of the keplerian elements: AFSPC